Weather History for Binghamton, NY

Change the Weather History Date:

Saturday, April 13, 2013

  Actual Average Record
Temperature  
Mean Temperature 42 °F 44 °F  
Max Temperature 49 °F 53 °F 80 °F (1977)
Min Temperature 34 °F 35 °F 21 °F (1992)
Degree Days  
Heating Degree Days 23 21  
Month to date heating degree days 324 305  
Since 1 July heating degree days 6279 6501  
Cooling Degree Days 0 0  
Month to date cooling degree days 0 0  
Year to date cooling degree days 0 0  
Moisture  
Dew Point 33 °F    
Average Humidity 75    
Maximum Humidity 92    
Minimum Humidity 58    
Precipitation  
Precipitation T in 0.12 in 1.10 in (1996)
Month to date precipitation 1.65 1.53  
Year to date precipitation 8.10 9.28  
Snow  
Snow 0.00 in 0.10 in 2.50 in (1961)
Month to date snowfall 0.9 2.6  
Since 1 July snowfall 69.1 81.6  
Snow Depth 0.00 in    
Sea Level Pressure  
Sea Level Pressure 29.84 in    
Wind  
Wind Speed 8 mph (WSW)    
Max Wind Speed 18 mph    
Max Gust Speed 23 mph    
Visibility 8 miles    
Events Fog , Rain    
T = Trace of Precipitation, MM = Missing Value Source: NWS Daily Summary

Daily Weather History Graph

Daily Weather History Graph

Search for Another Location

Airport:

Trip Planner

Search our weather history database for the weather conditions in past years. The results will help you decide how hot, cold, wet, or windy it might be!

Date:

Astronomy

Apr. 13, 2013 Rise Set
Actual Time 6:26 AM EDT 7:43 PM EDT
Civil Twilight 5:57 AM EDT 8:12 PM EDT
Nautical Twilight 5:22 AM EDT 8:47 PM EDT
Astronomical Twilight 4:45 AM EDT 9:24 PM EDT
Moon 8:12 AM EDT (4/13) 11:08 PM EDT (4/13)
Length of Visible Light 14h 15m
Length of Day
13h 17m
Waxing Crescent, 10% of the Moon is Illuminated
Apr 13
Waxing Crescent
Apr 18
First Quarter
Apr 25
Full
May 2
Last Quarter
May 9
New

Hourly Weather History & Observations

Time (EDT) Temp. Windchill Dew Point Humidity Pressure Visibility Wind Dir Wind Speed Gust Speed Precip Events Conditions
12:19 AM 37.4 °F 32.1 °F 35.6 °F 93% 29.79 in 10.0 mi NW 6.9 mph - 0.03 in Rain Light Rain
12:38 AM 37.4 °F 33.8 °F 35.6 °F 93% 29.79 in 10.0 mi NNW 4.6 mph - 0.04 in Rain Light Rain
12:53 AM 37.0 °F - 35.1 °F 93% 29.83 in 10.0 mi Calm Calm - 0.04 in Rain Light Rain
1:15 AM 37.4 °F - 35.6 °F 93% 29.79 in 10.0 mi Calm Calm - 0.00 in   Overcast
1:51 AM 37.4 °F - 35.6 °F 93% 29.78 in 1.8 mi Calm Calm - 0.00 in   Overcast
1:53 AM 37.0 °F - 35.1 °F 93% 29.82 in 1.2 mi Calm Calm - 0.00 in   Overcast
2:04 AM 35.6 °F - 35.6 °F 100% 29.78 in 1.8 mi Calm Calm - N/A   Overcast
2:08 AM 35.6 °F - 35.6 °F 100% 29.77 in 2.0 mi Calm Calm - N/A   Overcast
2:15 AM 35.6 °F - 35.6 °F 100% 29.77 in 0.8 mi Calm Calm - N/A   Overcast
2:19 AM 35.6 °F - 33.8 °F 93% 29.77 in 0.2 mi Calm Calm - N/A Fog Fog
2:27 AM 35.6 °F - 33.8 °F 93% 29.77 in 0.5 mi Calm Calm - N/A Fog Fog
2:30 AM 35.6 °F - 33.8 °F 93% 29.77 in 2.0 mi Calm Calm - N/A   Mostly Cloudy
2:37 AM 35.6 °F - 33.8 °F 93% 29.77 in 10.0 mi Calm Calm - N/A   Scattered Clouds
2:53 AM 35.1 °F - 33.1 °F 92% 29.80 in 10.0 mi Calm Calm - N/A   Partly Cloudy
3:53 AM 35.1 °F 32.2 °F 34.0 °F 96% 29.80 in 10.0 mi SW 3.5 mph - N/A   Overcast
4:53 AM 36.0 °F 30.3 °F 33.1 °F 89% 29.81 in 10.0 mi WSW 6.9 mph - N/A   Overcast
5:53 AM 36.0 °F 31.1 °F 32.0 °F 86% 29.81 in 10.0 mi West 5.8 mph - N/A   Overcast
6:53 AM 36.0 °F 31.1 °F 32.0 °F 86% 29.83 in 10.0 mi WSW 5.8 mph - N/A   Overcast
7:53 AM 37.0 °F 32.4 °F 33.1 °F 86% 29.84 in 10.0 mi WSW 5.8 mph - N/A   Overcast
8:53 AM 37.9 °F 31.5 °F 33.1 °F 83% 29.85 in 10.0 mi WSW 9.2 mph - N/A   Overcast
9:53 AM 41.0 °F 34.3 °F 33.1 °F 73% 29.85 in 10.0 mi West 11.5 mph - N/A   Overcast
10:53 AM 43.0 °F 37.7 °F 34.0 °F 71% 29.85 in 10.0 mi SW 9.2 mph - N/A   Overcast
11:27 AM 44.6 °F 39.2 °F 33.8 °F 66% 29.83 in 10.0 mi SW 10.4 mph - N/A   Overcast
11:38 AM 44.6 °F 38.8 °F 33.8 °F 66% 29.83 in 10.0 mi West 11.5 mph - N/A   Overcast
11:53 AM 46.0 °F 40.2 °F 34.0 °F 63% 29.86 in 10.0 mi West 12.7 mph - N/A   Overcast
12:53 PM 45.0 °F 38.5 °F 30.9 °F 58% 29.84 in 10.0 mi WSW 13.8 mph - N/A   Mostly Cloudy
1:53 PM 44.1 °F 38.6 °F 30.9 °F 60% 29.84 in 10.0 mi SW 10.4 mph 17.3 mph N/A   Overcast
2:53 PM 45.0 °F 39.3 °F 30.9 °F 58% 29.85 in 10.0 mi WSW 11.5 mph - N/A   Overcast
3:53 PM 42.1 °F 34.5 °F 30.0 °F 62% 29.87 in 10.0 mi WSW 15.0 mph - N/A   Overcast
4:53 PM 42.1 °F 36.6 °F 30.9 °F 65% 29.87 in 10.0 mi West 9.2 mph 20.7 mph N/A   Overcast
5:53 PM 43.0 °F 37.7 °F 30.0 °F 60% 29.88 in 10.0 mi WSW 9.2 mph - N/A   Overcast
6:53 PM 43.0 °F 40.3 °F 30.0 °F 60% 29.90 in 10.0 mi SW 4.6 mph - N/A   Overcast
7:53 PM 42.8 °F 38.6 °F 30.2 °F 61% 29.87 in 10.0 mi SSW 6.9 mph - N/A   Overcast
8:53 PM 42.1 °F 36.6 °F 30.9 °F 65% 29.91 in 10.0 mi SW 9.2 mph - 0.00 in   Overcast
9:53 PM 41.0 °F 35.2 °F 30.0 °F 65% 29.93 in 10.0 mi West 9.2 mph - 0.00 in Rain Light Rain
10:53 PM 37.0 °F 32.4 °F 32.0 °F 82% 29.95 in 10.0 mi NNW 5.8 mph - 0.00 in Rain Light Rain
11:13 PM 35.6 °F 29.2 °F 32.0 °F 87% 29.91 in 10.0 mi North 8.1 mph - 0.00 in Rain Light Rain
11:33 PM 35.6 °F 31.7 °F 33.8 °F 93% 29.92 in 10.0 mi NNW 4.6 mph - 0.00 in   Overcast
11:53 PM 36.0 °F - 33.1 °F 89% 29.94 in 10.0 mi Calm Calm - 0.00 in   Overcast